#timestamp,LO_Frequency,Hit,StdDev 
1647118815.3,286046996.6,P
1647118835.1,286047006.0,N
1647118855.8,286047004.9,N
1647118875.7,286047013.5,N
1647118895.5,286047019.8,N
1647118915.3,286047026.7,N
1647118935.2,286047020.4,N
1647118955.0,286047019.2,N
1647118955.9,286047019.2,N
1647118975.8,286047024.8,N
1647118995.6,286047025.2,N
1647119015.4,286047026.4,N
1647119035.3,286047022.7,N
1647119055.1,286047021.8,N
1647119075.9,286047014.4,N
1647119125.7,286047008.6,E
1647119135.6,286047004.1,N
1647119155.5,286046997.3,P
1647119175.3,286046995.3,N
1647119195.2,286046996.3,N
1647119215.9,286046986.1,Y
1647119235.7,286046984.0,P
1647119255.6,286046983.4,N
1647119275.4,286046974.2,P
1647119295.3,286046975.4,N
1647119315.1,286046966.2,Y
1647119316.0,286046966.2,P
1647119335.8,286046988.8,N
1647119355.7,286046988.3,N
1647119375.5,286046986.8,N
1647119395.4,286046982.1,N
1647119415.2,286046986.3,N
1647119435.0,286046979.8,N
1647119435.9,286046979.8,N
1647119455.8,286046983.2,N
1647119475.6,286046985.1,N
1647119495.5,286046984.7,N
1647119515.3,286046986.4,N
1647119535.1,286046985.3,N
1647119555.9,286046994.8,N
1647119575.7,286046999.9,N
1647119595.5,286047007.2,N
1647119615.4,286047012.8,N
1647119635.2,286047019.7,N
1647119655.1,286047023.5,N
1647119656.0,286047023.5,N
1647119675.8,286047019.0,N
1647119695.6,286047020.3,N
1647119715.5,286047013.2,N
1647119735.3,286047010.6,N
1647119755.1,286047009.2,N
1647119775.9,286046998.8,N
1647119795.7,286046998.6,N
1647119815.6,286047000.7,N
1647119835.4,286047004.9,N
1647119855.2,286047012.9,N
1647119875.1,286047015.0,N
1647119876.0,286047015.0,N
1647119895.8,286047018.7,N
1647119915.6,286047017.5,N
1647119935.5,286047021.6,N
1647119955.3,286047021.0,N
1647119975.2,286047025.1,N
1647119995.9,286047024.8,N
1647120015.7,286047020.7,N
1647120035.6,286047021.0,N
1647120055.4,286047023.0,N
1647120075.2,286047027.9,N
1647120095.1,286047029.2,N
1647120096.0,286047029.2,Y
1647120115.8,286047014.5,P
1647120135.7,286047013.7,P
1647120155.5,286047015.5,P
1647120175.3,286047013.6,Y
1647120195.2,286046999.5,P
1647120215.0,286046998.9,N
1647120215.9,286046998.9,N
1647120235.8,286046997.6,N
1647120255.6,286046991.1,N
1647120275.4,286046990.4,N
1647120295.3,286046985.4,N
1647120315.1,286046986.3,N
1647120335.8,286046986.4,N
1647120355.7,286046985.6,N
1647120375.5,286046990.8,N
1647120395.4,286046993.7,N
1647120415.2,286046992.1,N
1647120435.0,286046996.0,N
1647120435.9,286046996.0,N
1647120455.8,286046994.2,N
1647120475.6,286046994.1,N
1647120495.4,286046991.7,N
1647120515.3,286046997.3,N
1647120535.1,286046995.3,N
1647120555.9,286046995.9,N
1647120575.7,286046988.9,N
1647120595.5,286046987.3,N
1647120615.4,286046992.9,N
1647120635.2,286046997.4,N
1647120655.0,286046998.8,N
1647120656.0,286046998.8,N
1647120675.8,286047004.2,N
1647120695.6,286047017.1,N
1647120715.5,286047012.8,N
1647120735.3,286047010.9,N
1647120755.1,286047011.9,N
1647120775.9,286047009.4,N
1647120795.7,286047010.2,N
1647120815.5,286047011.9,N
1647120835.4,286047010.8,N
1647120855.2,286047006.4,N
1647120875.1,286047010.4,N
1647120876.0,286047010.4,N
1647120895.8,286047011.2,N
1647120915.6,286047007.2,N
1647120935.5,286047005.9,N
1647120955.3,286047001.1,N
1647120975.2,286046991.1,N
1647120995.9,286046986.3,N
1647121015.7,286046979.9,N
1647121035.6,286046977.4,N
1647121055.4,286046986.1,N
1647121075.3,286046984.9,N
1647121095.1,286046984.1,N
1647121096.0,286046984.1,N
1647121115.8,286046987.5,N
1647121135.7,286046990.8,N
1647121155.5,286046989.5,N
1647121175.3,286046991.2,N
1647121195.2,286046997.0,N
1647121215.0,286047002.7,N
1647121215.9,286047002.7,N
1647121235.8,286046998.6,N
1647121255.6,286046999.4,N
1647121275.4,286046995.4,N
1647121295.3,286046996.6,N
1647121315.1,286046991.4,N
1647121335.8,286046988.7,N
1647121355.7,286046988.9,N
1647121375.5,286046988.2,N
1647121395.4,286046990.6,N
1647121415.2,286046994.9,N
1647121435.0,286046995.7,N
1647121435.9,286046995.7,N
1647121455.8,286046990.8,N
1647121475.6,286046988.8,N
1647121495.4,286046992.3,N
1647121515.3,286046986.7,N
1647121535.1,286046981.7,Y
1647121555.9,286046985.3,P
1647121575.7,286046984.2,P
1647121595.5,286046990.5,P
1647121615.4,286046996.3,N
1647121635.2,286046996.4,N
1647121655.0,286046995.3,N
1647121656.0,286046995.3,N
1647121675.8,286046996.8,N
1647121695.6,286046998.9,N
1647121715.5,286047001.9,N
1647121735.3,286047005.0,N
1647121755.1,286047009.0,N
1647121775.9,286047011.3,N
1647121795.7,286047006.5,N
1647121815.5,286047003.4,N
1647121835.4,286047003.3,N
1647121855.2,286047008.6,N
1647121875.1,286047011.6,N
1647121876.0,286047011.6,N
1647121895.8,286047007.1,N
1647121915.6,286047006.8,N
1647121935.5,286047009.6,N
1647121955.3,286047016.5,N
1647121975.1,286047019.2,N
1647121995.9,286047024.9,N
1647122015.7,286047026.6,N
1647122035.6,286047027.1,N
1647122055.4,286047032.4,N
1647122075.2,286047038.6,Y
1647122095.1,286047045.6,P
1647122096.0,286047045.6,N
1647122115.8,286047050.3,N
1647122135.7,286047055.9,Y
1647122155.5,286047020.5,P
1647122175.3,286047021.5,N
1647122195.2,286047024.1,P
1647122215.0,286047030.4,Y
1647122215.9,286047030.4,P
1647122235.8,286047007.3,P
1647122255.6,286047012.0,N
1647122275.4,286047009.3,N
1647122295.3,286047008.6,N
1647122315.1,286047005.5,N
1647122335.9,286047010.8,N
1647122355.7,286047018.6,N
1647122375.5,286047023.0,N
1647122395.4,286047032.2,Y
